Regional Weather Roundup
Issued by NWS Columbia, SC

Home | Current Version | Previous Version | Text Only | Print | Product List | Glossary On
Versions: 1 2 3 4 5 6 7 8 9 10 11 12 13 14 15 16 17 18 19 20 21 22 23 24 25 26 27 28 29 30 31 32 33 34 35 36 37 38 39 40 41 42 43 44 45 46 47 48 49 50
000
ASUS42 KCAE 260710
RWRCAE
REGIONAL WEATHER ROUNDUP
NATIONAL WEATHER SERVICE COLUMBIA SC
300 AM EDT TUE MAY 26 2015

NOTE: "FAIR" INDICATES FEW OR NO CLOUDS BELOW 12,000 FEET WITH NO
SIGNIFICANT WEATHER AND/OR OBSTRUCTIONS TO VISIBILITY.

NOT ALL STATIONS ARE QUALITY CONTROLLED BY THE NATIONAL
WEATHER SERVICE. USE DATA WITH CAUTION...ESPECIALLY
DEWPOINT OBSERVATIONS.

SCZ001>056-GAZ040-063>065-077-260800-
...UPSTATE SOUTH CAROLINA...

CITY           SKY/WX    TMP DP  RH WIND       PRES   REMARKS
ANDERSON       CLOUDY    72  67  84 S8        30.24S
LIBERTY        CLOUDY    72  67  86 S8        30.23F
SPARTANBURG    CLOUDY    72  66  83 CALM      30.24F
CLEMSON        CLOUDY    72  67  84 VRB3      30.25S
GREENVILLE     CLOUDY    72  65  78 S8        30.25F
GREENWOOD      CLOUDY    69  67  93 S5        30.25F
GREER          CLOUDY    70  66  87 S5        30.24S
ROCK HILL      MOCLDY    69  65  86 VRB3      30.25F
CHESTER        PTSUNNY   70  64  83 SE3       30.25F
LAURENS        CLOUDY    70  70 100 S3        30.24F


...CENTRAL SOUTH CAROLINA...

CITY           SKY/WX    TMP DP  RH WIND       PRES   REMARKS
COLUMBIA APT   PTCLDY    70  65  84 E3        30.23F
COLUMBIA OWENS MOCLDY    70  65  84 CALM      30.25S
DARLINGTON     PTCLDY    66  61  82 NE3       30.27S
FLORENCE       PTCLDY    65  63  93 CALM      30.25F
ORANGEBURG     PTCLDY    67  64  90 CALM      30.24S
SUMTER SHAW    MOCLDY    68  65  90 S1        30.23F
AIKEN          FAIR      68  64  88 SE5       30.27F
BARNWELL       FAIR      70  70 100 E3        30.23F
MANNING        FAIR      61  45  55 CALM      30.24F
CAMDEN         FAIR      68  64  88 CALM      30.26S
LANCASTER      PTSUNNY   66  66 100 SE5       30.26F
WINNSBORO      PTSUNNY   68  66  94 SE3       30.25S


...EASTERN AND COASTAL SOUTH CAROLINA...

CITY           SKY/WX    TMP DP  RH WIND       PRES   REMARKS
MYRTLE BEACH   CLOUDY    73  66  78 SE14      30.27F
N MYRTLE BCH   CLEAR     74  66  76 SE8       30.25F
CONWAY         FAIR      63  63 100 CALM      30.25F
MARION         FAIR      63  63 100 CALM      30.26S
HARTSVILLE     FAIR      63  63 100 CALM      30.25F
FLORENCE       PTCLDY    65  63  93 CALM      30.25F
DARLINGTON     PTCLDY    66  61  82 NE3       30.27S
CHARLESTON APT PTCLDY    72  70  93 SE5       30.23F
MOUNT PLEASANT CLOUDY    73  72  94 CALM      30.23F
WALTERBORO     MOSUNNY   63  63 100 CALM      30.24S
BEAUFORT       PTCLDY    73  71  93 E5        30.22F


...EASTERN GEORGIA...

CITY           SKY/WX    TMP DP  RH WIND       PRES   REMARKS
AUGUSTA BUSH F MOCLDY    69  67  93 SE3       30.22F
AUGUSTA DANIEL CLOUDY    72  68  87 SE7       30.24S
THOMSON        MOCLDY    73  71  93 SE5       30.27S
WASHINGTON     FAIR      73  73 100 SE5       30.23S
CLAXTON        FAIR      68  68 100 CALM      30.22S FOG
SYLVANIA       CLOUDY    70  70 100 CALM      30.23S FOG
STATESBORO     PTCLDY    70  32  24 CALM      30.22S
SAVANNAH       CLEAR     73  70  90 E6        30.21F


...SOUTHERN NORTH CAROLINA...

CITY           SKY/WX    TMP DP  RH WIND       PRES   REMARKS
CHARLOTTE      CLOUDY    69  63  81 S8        30.26S
MONROE         MOCLDY    68  63  84 S5        30.25F
WADESBORO      PTSUNNY   67  63  88 SE3       30.26S
ROCKINGHAM     MOSUNNY   66  63  90 CALM      30.27S
RUTHERFORDTON  CLOUDY    68  63  84 E3        30.26S
ASHEVILLE      RAIN      65  63  93 CALM      30.28F

$$


USA.gov is the U.S. government's official web portal to all federal, state and local government web resources and services.